User: anonymous   Login
Location: Darlington Observatory
(36.4817°N, 105.8156°W)
Time: 05:41:23
(UTC-06:00)
Language:

MOS 1 - Orbit

View from above orbital plane
View from above orbital plane
View from above satellite
View from above satellite

Ground track
Ground track

The orbit data is extracted from the following two-line orbital elements,

1 17527U 87018A   18109.07461413  .00000336  00000-0  24833-3 0  9996
2 17527  99.2494 133.2917 0009066 165.4252 256.1446 14.02507653592336
Epoch (UTC): 19 April 2018 01:47:26
Eccentricity: 0.0009066
inclination: 99.2494°
perigee height: 878 km
apogee height: 892 km
right ascension of ascending node: 133.2917°
argument of perigee: 165.4252°
revolutions per day: 14.02507653
mean anomaly at epoch: 256.1446°
orbit number at epoch: 59233

The dashed part of the orbit path shows where the satellite is in the earth's shadow,  

DLR